Location: Unspecified
(0.0000°N, 0.0000°E)
Time: 00:51:32
(UTC+00:00)

STRELA 3 - Pass Details

Date: 22 May 2026
Orbit: 1496 x 1510 km, 82.5° (Epoch: 10 June)

Event Time Altitude Azimuth Distance (km) Brightness Sun altitude
Rises 01:20:20 0° 14° (NNE) 4,614 10.7 -61.1°
Reaches altitude 10° 01:23:29 10° 21° (NNE) 3,636 10.0 -60.6°
Enters shadow 01:23:59 12° 23° (NNE) 3,486 9.9 -60.5°
